Theta_e
316 317 317 317 316 316 315 315 315 315 314 314 315 314 314 314 314 314 313 312 312 312 311 311 310 310 309 307 305 304 303 303 302 303 304 304 303 302 302 302 301 301 300 300 298 297 296 295 295 295 295 294 293 293 292 291 290 290 290 290 290 290 289 288 288 287 287 286 286
315 315 315 317 317 315 313 313 312 312 312 313 314 314 314 314 314 314 313 312 312 312 312 311 310 309 307 306 305 305 304 304 303 303 303 303 303 303 302 302 301 300 299 299 298 297 296 294 295 295 294 293 292 292 291 290 290 289 290 290 290 289 289 289 289 288 287 287 286
315 315 314 314 313 313 312 312 311 310 310 311 311 312 313 313 314 314 313 313 312 312 311 311 310 308 306 305 305 305 305 305 304 303 303 303 303 303 302 302 300 299 299 299 298 297 297 295 295 296 296 294 293 293 292 289 289 289 290 290 290 290 289 290 289 288 287 287 286
313 313 313 313 312 312 312 314 312 310 309 311 309 310 311 313 313 314 313 313 312 311 310 311 310 308 307 306 305 305 305 306 305 304 303 304 303 303 302 301 300 299 298 298 297 297 296 295 296 297 296 294 293 293 293 290 289 289 290 290 289 290 290 290 289 288 287 287 286
312 312 313 314 313 313 313 313 312 311 310 310 309 310 312 312 313 313 312 312 312 312 311 310 310 309 308 307 305 304 304 304 305 305 304 304 303 303 301 300 300 299 298 297 297 297 296 295 296 297 297 295 295 294 293 291 289 289 289 289 289 289 289 289 288 287 287 287 286
311 311 312 312 312 312 312 312 311 311 311 312 312 312 313 313 313 313 312 312 312 311 310 310 310 309 307 305 304 304 303 303 305 305 305 304 304 302 301 299 299 299 299 297 297 297 296 296 297 297 296 295 295 294 292 290 290 289 289 289 288 288 289 288 288 287 286 286 286
311 311 311 311 310 311 311 310 310 311 312 313 313 313 313 313 313 312 312 312 311 310 310 310 309 308 307 305 304 303 304 304 304 305 305 305 304 302 300 299 299 298 298 297 297 296 296 296 297 297 297 297 296 293 291 289 290 290 290 290 289 288 288 287 287 287 286 286 285
309 310 310 310 310 310 311 310 312 313 314 314 313 313 313 313 312 312 312 311 311 309 309 309 308 307 306 305 304 304 304 304 305 305 305 305 303 302 301 300 299 298 297 298 297 297 296 296 297 297 297 297 296 293 290 289 290 290 290 290 289 288 287 287 286 286 286 286 285
308 309 309 309 309 310 310 311 312 314 314 314 313 313 313 313 312 312 311 311 310 309 308 308 306 305 304 304 304 304 304 305 304 305 305 304 303 302 301 301 300 299 299 299 298 298 297 296 296 296 296 296 295 293 290 289 290 290 290 290 289 288 287 286 285 285 285 285 285
307 307 307 307 307 308 309 309 311 313 313 313 312 312 312 313 312 312 311 311 310 308 306 306 305 304 304 303 304 304 304 304 304 304 304 304 303 303 303 302 301 301 300 300 299 298 296 296 296 296 295 295 294 292 290 289 289 290 290 291 290 289 287 285 285 285 285 285 285
306 306 306 306 306 307 307 307 308 309 310 311 310 309 309 311 310 310 309 309 308 306 305 305 304 304 304 304 304 304 305 304 305 304 304 304 304 305 304 304 302 301 300 300 299 297 296 297 297 296 295 294 293 292 290 289 289 289 289 289 289 288 287 285 284 284 284 284 284
304 304 304 305 304 305 305 306 306 307 307 308 307 306 306 307 307 307 307 307 306 305 304 303 303 304 304 305 305 305 305 304 305 305 305 304 304 304 304 303 302 300 299 298 298 298 297 297 297 297 296 294 293 292 290 288 288 288 288 288 287 286 286 286 285 284 284 284 284
301 301 301 302 301 302 304 304 305 305 305 306 305 305 305 305 306 306 305 304 304 304 304 303 303 303 304 305 305 305 305 305 304 304 304 303 302 302 302 301 301 299 299 298 298 298 298 298 298 297 296 294 292 290 289 288 288 288 287 287 286 285 285 286 285 285 285 284 284
297 298 298 298 299 301 302 303 304 304 304 304 304 303 303 303 303 304 304 303 304 304 304 303 303 304 304 305 304 304 303 303 303 302 302 302 301 301 301 300 300 299 298 298 299 299 299 299 297 296 294 293 290 289 287 287 287 287 287 287 286 286 286 287 286 286 285 285 285
295 295 296 297 298 299 301 301 302 302 302 302 301 300 300 300 301 302 302 302 303 304 304 303 303 303 303 303 302 302 301 300 300 300 300 300 300 300 300 299 299 298 298 297 297 297 297 297 295 293 292 291 289 288 286 286 286 286 287 287 287 287 287 288 287 287 287 286 286
294 294 294 296 297 298 299 299 299 300 299 299 297 297 297 298 298 300 301 302 303 303 303 302 301 301 301 300 300 299 299 298 299 299 299 299 299 299 299 298 298 297 296 295 294 294 293 293 292 291 290 290 289 288 286 285 285 285 285 286 286 287 288 289 289 288 288 287 288
293 293 294 295 296 297 297 297 297 296 296 296 294 294 295 295 296 298 301 302 302 302 301 300 299 299 298 298 298 297 297 297 297 297 298 298 298 298 297 297 297 296 294 293 292 291 291 290 290 289 289 288 288 287 286 285 285 285 285 285 286 287 289 290 290 290 289 289 289
293 293 293 294 295 295 295 294 294 294 293 293 292 292 292 293 294 296 299 300 300 299 299 297 296 296 296 295 295 296 296 295 295 295 295 296 296 296 296 295 294 293 292 290 290 290 289 289 288 288 287 287 287 286 286 285 285 285 285 286 287 288 289 290 290 290 290 290 290
292 292 292 293 293 293 294 294 293 292 291 291 290 291 291 291 292 294 295 296 297 297 296 295 294 293 293 293 292 294 295 294 293 293 294 294 294 294 293 292 291 290 289 288 288 289 289 288 288 287 287 286 286 286 285 285 285 285 286 286 287 288 289 289 289 290 290 290 290
291 291 291 291 291 292 292 292 291 290 289 289 289 290 290 290 291 292 293 293 293 293 293 293 293 292 291 291 291 291 292 293 292 292 292 292 291 290 289 289 288 287 286 286 287 287 287 287 287 286 286 286 286 286 285 285 285 286 286 287 287 288 289 289 289 289 290 289 289
289 289 289 289 290 290 290 289 289 288 288 288 289 289 289 289 290 291 291 291 291 291 291 291 291 291 290 290 290 289 290 291 290 289 289 289 288 287 287 287 286 285 285 284 285 286 286 286 286 285 285 286 285 285 285 285 285 285 286 286 287 287 288 288 288 289 289 289 288
287 287 287 288 289 289 289 288 288 287 287 287 287 288 288 288 288 288 288 289 289 289 289 289 289 289 289 288 288 288 288 288 287 287 286 285 285 285 285 285 284 284 284 284 284 284 285 285 284 284 284 284 284 284 285 285 285 285 285 285 286 286 286 286 286 286 286 287 287
285 286 286 287 288 290 290 288 287 287 287 287 287 287 287 287 287 287 287 288 289 288 287 287 286 286 286 286 286 286 286 286 286 285 284 283 283 283 283 283 283 284 283 283 283 283 283 283 283 282 281 282 282 283 284 284 285 285 285 285 285 285 285 285 284 284 284 285 285
284 285 286 287 287 288 288 288 287 287 287 286 286 286 286 286 286 286 286 286 286 286 285 285 284 284 284 284 284 285 285 285 285 284 283 282 282 282 282 282 283 283 283 283 285 285 285 284 283 282 282 282 282 283 283 284 284 284 284 284 285 285 285 284 284 284 284 284 285
284 285 287 286 286 286 286 287 287 286 286 285 285 285 286 286 286 286 286 285 285 284 284 284 284 284 283 283 283 283 283 284 284 283 283 282 282 281 282 282 283 283 283 286 291 294 294 293 289 286 284 283 283 283 284 284 284 284 284 285 285 285 285 285 285 284 284 284 285
284 285 285 285 285 286 286 285 285 285 285 285 285 285 285 285 285 285 285 285 284 284 284 284 284 285 285 283 283 283 282 281 282 282 282 283 282 282 282 282 283 283 284 290 295 298 300 300 300 295 288 282 283 284 285 285 285 285 285 285 285 285 285 286 286 286 286 286 285
284 284 284 284 285 285 284 284 285 285 285 285 285 285 285 285 285 285 285 284 284 284 283 283 284 286 286 283 283 282 282 281 280 281 281 282 283 283 283 283 283 283 286 294 299 301 301 302 302 301 297 289 287 286 287 288 287 286 285 285 285 285 285 285 286 287 287 287 286
284 284 284 285 285 284 284 284 284 284 284 284 284 284 284 284 285 284 284 284 283 283 283 282 283 283 283 282 282 281 281 280 280 280 281 282 282 283 282 283 282 285 290 299 300 301 301 301 301 301 300 297 292 289 288 288 288 287 286 286 285 285 284 285 285 286 286 286 285
283 284 284 285 284 284 283 284 284 284 284 284 284 284 284 284 284 284 283 283 283 282 282 281 283 282 281 281 281 280 280 280 280 280 281 282 282 282 283 283 283 287 293 299 300 300 300 300 300 300 299 299 295 292 290 289 288 288 287 286 286 285 284 284 284 285 285 285 285
282 283 284 284 284 283 283 283 283 283 283 284 284 284 284 284 283 283 282 282 281 281 281 280 281 281 281 280 280 280 280 280 280 280 281 282 284 284 284 285 284 287 292 299 299 299 299 299 299 299 299 298 296 293 290 288 287 287 286 285 284 283 283 283 283 283 283 284 284
282 283 284 284 284 283 282 282 282 282 283 284 284 284 284 283 282 281 280 280 281 282 283 281 281 281 280 279 280 280 280 280 280 281 281 282 285 285 284 283 283 287 292 298 298 298 298 298 298 298 298 298 296 292 289 287 286 286 285 284 283 283 282 282 282 282 282 282 283
282 283 284 284 283 283 282 282 282 282 283 283 284 283 282 281 280 279 279 280 281 281 281 281 282 282 281 280 280 281 281 281 282 282 282 282 282 282 283 284 283 287 292 297 297 297 297 297 297 297 297 297 295 291 287 286 285 284 283 283 282 282 282 282 282 282 281 281 282
282 283 284 284 283 282 282 282 282 282 283 283 283 282 281 280 279 279 279 280 280 280 280 281 281 281 281 281 281 282 282 283 283 283 284 283 282 282 282 283 283 287 293 296 296 296 296 297 297 297 297 296 293 289 286 284 284 283 283 282 282 281 281 280 280 281 281 281 281
282 283 283 283 282 282 282 282 282 282 283 283 282 281 280 280 280 280 281 281 280 278 278 278 279 279 279 279 280 281 283 284 282 281 280 280 280 281 282 282 282 288 293 295 296 296 296 296 296 296 296 296 291 287 284 283 282 282 281 281 280 280 280 280 280 280 280 280 281
282 283 283 282 281 281 281 282 282 282 283 282 282 281 280 279 279 280 281 283 281 279 277 277 277 278 278 278 278 280 282 282 281 280 280 280 280 281 281 281 282 287 292 294 295 295 295 295 295 295 295 293 289 285 283 282 281 281 280 279 279 280 280 280 279 279 279 279 279
282 283 283 282 281 281 281 282 282 282 282 282 281 281 280 279 279 279 280 283 281 280 279 278 278 279 279 279 279 280 281 280 280 280 280 281 280 280 280 280 280 285 290 294 294 294 295 295 295 295 294 291 286 284 282 281 281 280 279 279 279 279 279 280 280 279 278 278 278
281 282 282 282 281 281 281 282 282 282 282 281 280 280 279 279 279 279 280 282 280 280 280 279 279 280 280 279 279 279 279 279 279 280 280 281 280 279 279 279 279 282 287 293 293 294 294 294 294 294 292 288 285 283 282 281 280 280 279 279 279 279 279 280 280 279 278 277 279
281 282 282 282 282 281 281 282 282 282 281 280 280 279 278 278 278 279 280 282 280 280 280 279 279 279 279 279 279 279 278 278 279 279 279 278 278 279 279 278 278 280 285 291 292 293 293 294 294 294 292 288 284 282 281 280 280 279 279 279 279 279 280 280 279 279 279 279 285
281 281 282 283 282 282 282 282 281 281 281 281 280 279 278 278 278 279 279 280 278 278 279 278 278 278 279 280 279 278 278 277 278 278 278 277 278 280 281 278 277 279 284 290 292 292 293 293 293 293 292 289 284 282 281 280 279 279 279 279 280 280 280 280 279 279 279 279 287
281 281 282 283 282 282 282 281 280 280 280 280 280 279 279 279 279 279 279 277 276 277 277 278 277 278 279 281 279 277 277 277 276 276 277 278 279 282 283 278 277 278 282 288 291 292 292 292 293 293 292 289 284 282 281 280 279 279 279 280 280 280 280 280 279 279 279 279 284
281 282 282 282 282 282 281 281 280 279 279 279 279 279 279 279 278 277 277 276 276 276 276 277 276 277 278 280 278 277 277 277 276 276 276 278 278 280 280 277 276 277 279 285 290 292 292 292 292 293 292 290 285 282 280 279 279 279 279 279 280 280 280 279 279 279 279 279 280
Wind_Speed
6 6 5 5 5 5 5 5 5 5 5 5 5 6 5 6 6 6 5 5 6 6 6 6 6 6 6 6 7 8 9 9 9 10 10 11 10 10 10 9 9 8 8 8 7 6 6 6 6 5 4 4 5 5 5 4 5 5 6 6 5 5 5 6 6 6 6 6 4
7 6 6 6 5 5 4 4 4 4 4 5 5 5 6 6 6 6 6 6 6 6 6 6 6 6 6 7 8 8 9 9 10 10 10 11 11 10 10 9 8 8 8 7 6 6 5 6 5 5 4 4 4 5 5 4 5 6 6 7 6 5 5 5 6 7 7 6 4
7 6 6 6 5 5 5 4 4 5 5 5 5 5 5 5 5 6 6 6 6 6 5 5 5 6 7 7 7 8 8 9 9 9 9 10 10 10 9 8 7 7 6 6 6 5 5 5 5 5 5 4 5 5 5 4 5 5 6 7 5 4 4 5 5 5 5 4 4
6 6 6 6 7 7 6 6 6 6 6 5 5 5 5 5 5 5 5 5 5 5 5 6 6 6 7 7 7 7 8 9 9 9 9 10 10 9 8 7 6 5 5 4 5 5 5 5 4 4 5 5 6 6 5 4 4 5 5 5 4 4 5 5 5 4 4 4 4
6 6 6 6 8 8 7 6 7 6 6 5 5 5 5 5 5 4 4 5 6 6 7 7 6 6 6 6 7 7 7 8 8 9 9 9 9 8 6 6 5 4 4 4 4 4 4 4 4 4 4 4 4 4 4 4 4 4 4 3 3 4 4 5 4 4 3 3 3
6 6 6 6 7 7 6 6 7 7 6 5 6 6 6 5 5 5 6 7 7 7 7 7 6 5 5 6 6 7 7 7 8 8 8 9 7 6 5 5 4 4 4 4 4 4 4 4 4 4 4 4 4 4 3 4 5 4 4 3 3 4 4 4 4 3 3 4 4
6 6 6 6 7 6 6 6 6 6 6 6 7 8 8 7 7 8 8 8 6 6 6 6 6 6 6 6 6 6 7 7 7 8 8 7 7 6 5 5 4 4 4 4 4 4 4 4 4 4 4 4 3 3 3 4 5 5 5 5 4 4 4 4 3 3 4 5 6
5 6 6 6 7 7 7 7 7 6 6 6 8 9 10 10 10 9 8 7 5 5 5 5 6 7 7 6 6 7 7 8 8 8 7 7 6 6 6 5 5 5 5 5 5 6 5 5 5 5 4 4 3 3 3 5 5 6 6 6 4 4 3 3 3 4 4 6 6
4 4 5 5 6 6 7 7 8 8 8 8 9 10 10 10 9 9 8 6 6 5 5 5 6 6 7 7 7 7 7 8 8 7 6 6 6 6 6 5 6 6 6 6 6 7 6 5 5 4 4 3 3 3 4 5 6 6 7 6 5 3 3 3 3 4 5 6 7
4 4 5 5 5 6 6 7 7 8 8 8 9 9 9 9 8 8 7 6 5 5 4 5 6 6 6 7 7 8 7 7 6 6 5 5 6 6 6 6 7 7 7 6 6 6 6 5 5 5 4 4 4 4 5 6 7 7 7 5 5 4 4 3 3 4 5 6 7
5 5 5 5 5 5 6 6 6 6 7 7 7 7 7 7 7 6 5 4 4 4 5 5 6 6 7 7 7 7 6 5 5 5 5 5 6 7 8 7 7 7 7 6 5 5 4 4 5 5 5 5 5 5 6 7 8 8 8 6 5 5 5 4 4 5 5 6 6
4 4 4 4 4 4 5 5 5 5 6 6 6 6 6 6 6 5 4 4 4 5 5 5 6 6 7 7 6 6 5 4 4 4 5 6 7 8 8 7 7 7 6 6 5 4 4 5 6 7 7 7 6 6 6 8 8 8 8 6 6 6 6 6 6 5 5 5 5
2 2 2 2 3 3 4 5 4 5 5 5 5 5 5 5 4 4 4 5 5 5 5 4 5 6 6 6 5 5 4 4 4 5 6 6 6 6 6 6 6 6 6 5 5 5 5 6 7 8 9 8 7 6 6 7 7 7 7 7 6 6 7 8 7 6 5 4 5
2 2 2 2 3 3 3 4 4 4 4 4 4 4 3 3 3 3 4 5 6 5 4 4 4 4 5 5 4 4 4 4 5 5 6 6 5 5 5 5 5 5 5 5 5 6 7 8 8 9 9 9 7 6 6 6 6 7 7 7 7 8 8 9 8 6 5 5 6
3 2 2 3 3 3 3 4 3 3 3 3 3 2 2 2 2 3 4 5 5 4 4 3 3 3 3 3 3 3 3 3 4 4 5 5 5 5 5 5 5 5 5 5 5 6 8 9 9 8 8 8 7 6 6 6 6 7 7 7 8 8 9 8 7 6 6 6 6
3 2 2 3 3 3 3 3 2 2 2 2 2 1 2 2 2 2 3 4 4 3 2 3 2 2 1 1 1 2 2 2 3 3 4 5 4 4 4 4 5 5 5 5 5 6 6 7 7 7 7 7 7 6 6 6 6 6 7 7 8 8 8 8 7 6 6 6 6
3 2 2 3 3 3 3 2 2 2 2 2 1 1 1 1 1 2 2 3 2 2 2 2 1 1 1 1 1 1 2 2 3 3 4 4 4 4 4 4 4 4 5 5 5 5 6 5 5 5 5 5 5 5 5 6 6 6 7 7 7 7 7 7 7 7 6 6 7
2 2 2 2 3 3 2 2 2 2 2 2 1 1 1 2 2 1 1 2 2 2 2 2 1 1 1 1 1 1 2 2 3 3 3 3 3 3 3 3 3 3 3 4 5 5 5 5 4 3 3 4 4 4 4 5 5 6 6 6 6 6 7 7 7 6 6 6 7
2 2 2 2 2 2 2 2 2 2 2 2 2 2 2 2 2 2 2 2 2 2 3 2 2 2 2 2 1 1 1 2 2 2 2 1 1 1 2 2 2 2 2 3 4 4 4 3 3 3 3 3 3 3 3 3 4 5 5 6 6 6 6 6 6 6 6 6 7
2 2 2 2 2 2 2 2 2 2 2 2 2 2 2 2 2 2 2 2 2 2 3 3 2 2 2 2 2 1 1 1 1 1 1 1 1 1 1 1 1 1 1 2 2 2 2 2 2 2 2 2 3 3 3 3 3 4 4 5 5 5 6 6 6 6 6 6 6
2 2 2 2 2 2 3 2 2 3 3 3 3 3 3 2 3 3 2 2 2 3 3 3 3 2 2 2 2 2 2 2 2 2 2 2 2 2 1 1 1 1 1 1 0 1 1 1 1 1 1 2 2 3 3 3 3 4 4 4 4 5 5 5 5 6 6 6 6
2 2 2 2 2 3 3 3 3 3 3 3 3 3 3 3 3 3 2 2 3 3 3 3 2 2 2 2 2 2 2 3 4 4 3 3 3 2 2 2 2 1 1 1 1 1 1 1 1 0 0 1 1 2 2 2 3 4 4 4 5 5 5 5 5 5 6 6 6
2 2 2 2 2 3 3 3 3 3 3 3 3 3 3 3 3 3 3 4 4 4 4 4 3 3 3 3 3 3 3 4 4 4 4 4 3 3 3 3 2 2 2 1 1 1 1 1 1 1 0 0 1 2 2 2 3 4 4 5 6 6 6 5 5 5 6 6 6
2 2 2 2 3 3 3 3 3 3 3 3 3 3 3 3 3 4 4 5 5 5 5 4 4 4 4 4 5 4 4 4 4 4 5 5 4 4 4 3 3 2 2 1 1 0 1 1 0 1 1 1 2 2 3 3 3 4 5 6 6 7 7 6 6 6 6 6 6
2 2 3 3 3 3 3 4 4 4 4 3 3 3 4 4 4 4 4 5 5 5 5 4 4 4 4 5 5 6 6 5 5 4 4 5 5 4 4 3 3 2 1 1 1 2 2 2 2 2 2 2 3 3 3 3 4 4 5 6 6 6 7 7 7 6 6 6 6
3 3 3 4 4 4 5 4 4 4 4 3 4 4 4 4 4 5 5 6 5 5 5 5 5 5 5 5 5 6 6 5 5 4 4 4 4 4 4 3 3 2 2 2 4 4 5 5 5 3 2 3 2 2 3 3 4 4 4 5 5 6 6 7 7 7 7 6 6
4 4 4 4 6 6 6 4 4 4 4 4 5 5 5 4 5 6 6 6 5 5 5 5 5 5 5 5 6 6 5 4 4 4 3 3 4 4 4 3 3 2 2 4 6 7 8 9 10 9 5 1 2 2 2 3 3 3 3 4 4 5 5 6 7 7 7 7 7
4 4 5 6 7 6 5 5 5 6 5 5 5 5 5 5 6 6 5 4 4 4 4 4 4 3 4 5 5 5 4 4 3 3 3 3 3 4 4 3 3 3 5 8 10 11 11 12 12 12 10 6 2 1 2 2 3 3 3 3 3 4 5 5 6 6 7 7 7
4 5 6 8 7 6 6 6 6 6 5 5 5 5 6 6 6 6 5 5 5 5 4 3 3 3 4 4 4 4 4 4 3 3 4 4 5 4 4 4 4 6 9 12 13 13 13 13 13 13 12 11 6 3 2 2 2 3 3 3 3 3 4 5 5 5 6 6 7
5 6 7 8 7 7 6 5 5 5 4 4 5 6 7 7 7 6 5 5 5 4 3 2 3 4 4 4 4 4 4 4 4 4 5 6 6 6 5 5 5 7 10 14 14 14 14 13 13 13 13 13 8 5 3 3 3 3 3 3 4 4 4 5 5 6 6 6 7
6 6 7 8 7 7 6 5 4 4 5 6 7 7 7 7 6 5 4 4 3 3 2 3 4 5 4 4 4 4 4 4 4 5 6 6 6 6 6 6 6 8 10 14 14 14 14 14 14 14 13 13 9 6 4 3 3 3 3 4 4 5 5 5 6 6 7 7 7
6 7 7 8 7 6 5 4 5 5 6 7 7 7 7 6 4 3 3 2 2 3 4 5 5 5 5 4 5 5 5 5 5 5 5 6 5 5 6 7 7 8 10 15 14 14 14 14 13 13 13 13 9 6 4 4 4 3 4 4 5 5 5 5 6 6 7 7 7
6 7 8 8 7 5 5 5 5 6 7 8 7 7 6 4 3 3 3 3 3 4 5 5 5 5 5 5 5 5 5 6 6 6 6 6 6 6 6 7 6 8 11 14 14 14 14 13 13 13 13 13 9 6 4 4 4 3 4 4 4 5 5 6 6 7 7 7 7
6 7 8 7 6 5 5 4 5 6 7 7 7 6 5 4 4 4 4 3 3 3 4 4 4 4 3 3 4 5 6 6 7 6 6 6 6 6 7 7 5 8 12 14 14 14 13 13 13 13 13 12 8 5 4 4 4 4 4 4 5 5 6 6 6 6 7 7 6
6 7 7 7 6 6 5 5 6 7 7 8 7 6 5 5 5 4 3 3 3 3 3 3 3 3 3 3 4 5 6 7 7 6 6 6 6 7 7 7 6 9 13 14 14 13 13 14 14 14 13 10 6 4 4 4 3 4 4 5 5 6 6 6 6 6 6 6 5
5 7 7 7 6 6 6 6 7 8 8 8 7 6 5 4 4 3 2 2 3 4 4 3 3 4 5 5 5 5 5 6 6 6 6 6 6 6 6 6 6 9 12 13 14 14 14 14 14 14 12 8 5 3 3 3 3 3 4 4 5 5 6 6 6 6 6 5 5
4 6 7 7 7 6 6 7 8 8 8 7 6 5 4 4 3 3 3 3 4 5 4 4 5 5 6 6 5 5 4 4 5 6 6 6 6 5 5 5 6 8 11 13 14 14 14 14 15 14 11 6 4 3 3 3 3 3 3 4 5 5 6 6 5 5 5 5 5
4 5 7 7 7 7 7 8 8 8 7 6 5 4 3 3 3 3 4 4 5 5 5 5 5 5 4 4 4 4 4 4 5 5 5 6 5 4 4 5 5 6 9 13 14 15 15 15 15 14 11 5 3 3 3 3 3 3 4 4 4 5 5 5 5 4 5 5 7
5 6 7 8 8 8 8 9 8 7 6 5 5 4 4 3 3 3 3 4 4 4 5 5 4 4 4 4 5 5 5 5 5 5 5 4 4 5 5 4 4 6 8 12 14 15 15 15 15 14 12 6 3 3 3 3 3 4 4 4 4 5 5 5 4 4 4 5 8
5 6 8 8 8 9 9 9 7 6 5 5 5 4 4 3 3 3 3 4 4 4 4 4 4 4 4 5 6 6 6 6 5 5 4 4 5 6 6 4 4 6 8 12 14 15 15 15 15 15 12 6 3 2 2 3 4 4 5 5 5 5 5 5 4 4 4 5 6
5 7 8 8 8 8 9 8 7 5 5 5 5 4 3 2 3 3 4 4 5 5 4 4 4 4 5 6 6 6 6 6 6 5 4 4 5 6 6 4 5 6 7 10 13 15 15 15 15 15 13 8 4 2 2 3 4 5 5 5 5 5 4 4 4 4 4 4 5
Wind_Direction
193 191 188 182 182 184 188 192 187 181 179 181 185 187 189 190 195 197 199 198 203 208 212 214 216 218 217 211 204 204 206 209 210 213 216 217 219 220 221 220 219 217 217 216 211 206 202 202 204 204 204 204 206 207 205 194 185 185 189 195 199 197 192 191 200 202 202 205 207
195 192 187 182 180 179 180 183 181 180 179 183 185 186 188 191 195 198 200 201 207 210 212 216 217 216 214 210 205 204 205 209 210 213 216 220 222 222 222 222 221 219 216 214 207 203 200 198 200 204 207 207 205 207 206 196 182 183 190 198 199 194 190 198 206 206 204 205 206
193 190 186 180 175 173 175 180 181 181 181 185 185 185 187 193 197 200 202 204 207 209 212 217 217 215 212 210 207 207 208 210 210 213 217 222 224 225 225 225 224 222 219 214 208 205 201 195 200 206 210 208 205 207 206 195 182 184 192 200 197 191 193 206 209 206 202 205 205
191 188 185 182 177 176 179 183 184 184 183 183 182 184 188 195 199 203 204 205 205 208 212 216 216 214 211 209 210 211 213 213 211 213 218 224 226 226 226 226 226 224 221 216 213 210 205 196 205 214 216 212 210 210 208 191 185 191 199 201 193 191 196 209 205 200 197 202 203
191 190 188 185 181 181 182 182 182 183 183 178 178 184 191 198 202 204 204 204 208 210 212 212 213 213 211 208 209 212 215 215 214 216 220 226 228 227 225 223 222 220 216 212 213 211 207 200 215 225 227 221 217 215 206 181 185 196 207 205 196 195 199 206 200 193 190 196 200
192 192 190 186 183 182 183 182 181 181 180 177 181 188 195 200 201 203 205 208 211 211 210 209 211 212 210 206 208 211 215 217 218 220 223 228 229 225 220 217 213 209 205 203 203 203 203 205 224 234 234 230 227 219 199 172 182 196 209 213 208 204 201 204 196 189 186 197 205
188 189 189 187 183 182 183 182 180 179 180 182 189 195 199 201 202 205 207 210 210 208 206 207 209 210 209 205 208 211 215 219 222 223 223 227 226 220 210 202 199 200 199 193 190 193 201 206 222 233 235 230 226 215 195 175 183 195 206 214 211 205 200 204 195 187 188 199 208
185 186 187 186 182 182 182 181 181 182 186 192 197 201 203 203 204 206 207 209 210 207 205 206 207 208 207 206 209 213 217 220 224 224 222 223 221 214 203 192 193 200 202 193 189 192 198 202 215 225 229 224 222 213 197 183 188 197 208 216 213 206 200 202 192 189 193 200 210
183 187 188 184 183 183 183 183 185 188 192 198 202 204 205 205 204 205 206 209 210 207 203 205 206 205 206 208 212 216 219 221 224 223 221 218 216 212 205 194 200 208 211 201 193 192 195 200 213 222 224 218 217 209 197 187 195 205 213 218 215 210 204 201 192 192 196 201 213
184 186 185 184 186 185 184 185 189 191 195 200 203 205 205 205 205 206 207 209 205 202 202 205 203 203 206 212 217 221 223 224 223 220 217 216 217 218 216 210 210 215 218 211 198 193 193 202 216 223 225 217 214 206 196 190 200 209 215 220 215 212 209 207 198 199 203 207 217
182 182 181 182 184 182 180 183 190 194 196 200 202 203 204 206 206 207 206 202 197 201 205 206 201 202 209 216 222 225 226 225 221 218 216 219 223 225 226 222 216 215 216 210 196 189 193 206 219 226 228 223 216 206 198 196 202 209 214 219 214 213 215 217 209 206 208 212 219
178 177 176 175 172 171 173 181 189 194 197 201 202 202 203 205 205 203 198 192 197 204 208 204 200 204 211 221 224 226 225 221 218 218 221 225 228 229 228 226 218 213 207 199 185 183 193 213 224 229 230 226 218 209 202 199 202 208 214 217 213 216 221 226 221 216 212 211 221
155 154 154 151 150 157 168 180 188 193 197 201 203 202 202 206 202 195 189 191 200 206 208 205 202 206 214 222 224 223 221 217 217 221 224 226 226 226 225 224 216 208 201 193 186 190 203 219 225 229 229 226 221 212 204 198 202 208 214 217 217 221 227 233 229 224 218 216 225
112 121 128 131 137 151 166 179 187 192 196 201 203 200 198 200 194 187 186 192 202 206 207 204 205 210 216 221 221 219 216 215 216 220 223 226 223 220 218 218 212 206 201 197 195 201 210 221 224 226 226 224 220 212 203 197 202 208 213 217 221 226 231 236 234 230 225 226 233
99 106 114 123 134 149 163 177 184 188 191 198 197 190 183 186 183 182 185 194 202 203 201 198 205 211 216 216 214 212 210 209 212 217 222 227 223 218 213 213 208 205 202 202 204 208 213 220 221 222 221 221 217 210 203 200 206 211 215 218 222 227 233 238 238 235 231 231 237
100 104 109 119 133 147 159 172 174 176 179 185 174 162 159 166 167 172 181 192 197 195 190 191 197 200 198 190 185 187 189 197 205 214 221 227 223 218 212 210 207 203 201 202 207 211 215 218 218 217 217 219 216 210 205 204 209 215 220 224 227 232 237 242 243 242 239 236 240
96 99 106 118 132 142 150 155 150 150 152 151 131 126 131 132 132 154 171 180 177 175 176 178 165 148 137 134 132 150 168 189 203 213 220 226 223 217 212 210 207 202 199 198 206 213 217 220 217 215 214 216 216 213 208 206 212 218 224 229 233 238 243 248 250 251 250 247 247
89 93 99 110 124 132 135 130 122 120 117 111 100 95 91 94 108 121 135 139 146 155 158 144 111 109 121 134 134 148 167 186 204 213 219 223 219 213 209 209 205 196 192 196 206 213 217 219 216 213 212 215 218 215 212 210 216 222 227 233 239 243 248 253 256 258 260 259 260
83 84 86 96 107 111 112 108 102 97 92 87 84 78 75 78 93 98 99 94 114 131 137 130 112 109 117 131 131 141 158 178 196 206 213 210 200 197 198 197 187 179 182 195 208 214 217 216 211 208 211 216 221 222 220 217 223 228 232 237 242 247 252 255 258 261 264 266 269
65 63 64 67 76 83 87 88 87 83 80 77 77 76 74 71 80 89 94 91 97 112 124 130 130 128 124 121 116 112 113 117 134 138 120 91 94 103 120 129 133 143 161 183 206 217 219 216 208 206 208 215 225 232 233 233 236 240 243 245 249 252 255 258 261 264 265 265 268
44 43 46 52 64 73 78 80 81 79 76 73 73 73 74 69 72 79 87 90 93 100 112 126 133 136 132 120 111 96 78 67 70 71 70 67 67 64 64 75 85 97 108 127 176 212 220 212 198 195 205 218 232 238 243 247 251 255 258 260 261 262 263 265 266 267 267 266 266
29 31 42 58 72 79 82 80 78 75 73 68 66 67 68 67 68 68 71 74 79 85 90 98 103 107 108 107 104 93 76 64 62 61 60 60 58 56 55 64 71 69 61 56 49 35 32 32 50 68 137 231 249 256 258 262 267 270 273 274 273 273 271 270 269 268 267 266 265
8 18 38 61 73 79 81 79 74 70 66 62 60 61 65 67 65 61 59 59 63 67 69 70 69 71 75 79 84 84 77 68 59 54 51 51 50 47 46 51 57 54 48 46 47 44 37 24 23 36 55 226 262 263 263 261 265 270 274 276 277 277 275 273 269 267 266 265 263
2 21 40 54 63 68 71 71 68 65 62 59 58 60 63 64 63 60 57 56 56 57 58 58 58 60 63 65 67 70 70 67 57 48 42 40 41 39 39 42 46 45 42 44 59 140 180 177 225 242 234 227 237 243 245 245 249 255 262 269 274 277 279 277 273 269 266 265 264
22 41 50 54 59 61 63 64 67 66 64 59 58 59 60 60 62 62 60 56 52 52 53 55 54 55 57 59 58 59 60 59 55 48 39 32 32 33 35 36 37 34 23 353 296 275 258 236 222 215 215 223 230 237 242 244 244 248 255 262 270 276 282 285 283 278 272 267 265
46 53 55 57 61 62 62 64 68 68 66 60 57 57 57 57 61 64 64 61 55 51 50 51 50 51 52 54 54 52 51 50 51 50 44 33 27 25 26 28 27 20 357 324 318 316 312 307 300 288 241 196 217 239 253 257 251 250 253 259 266 273 280 287 289 288 285 279 273
56 60 60 62 63 63 61 61 62 62 61 61 60 61 61 61 63 65 65 62 57 51 47 45 45 48 50 52 52 50 47 42 44 48 50 45 33 24 18 17 15 2 339 332 339 341 342 341 338 339 340 201 209 233 257 270 268 265 262 264 267 270 275 280 285 289 292 291 286
60 64 65 65 63 60 56 55 58 60 61 63 65 65 65 64 63 64 62 58 52 46 42 39 39 43 49 51 51 50 47 41 39 42 46 49 42 31 20 9 1 347 344 349 354 356 355 353 351 349 347 343 328 287 280 288 291 291 287 281 279 276 276 277 282 287 291 293 293
62 66 67 67 64 59 55 55 58 60 62 65 68 68 66 64 61 58 55 50 44 39 34 27 28 39 47 49 47 46 44 40 36 36 38 38 34 28 19 7 357 352 353 359 1 1 359 357 355 351 348 346 344 342 338 329 325 322 318 310 303 297 291 288 289 291 293 294 296
63 69 71 71 65 60 56 55 56 58 61 65 68 67 65 61 55 51 47 46 42 36 29 26 41 48 50 45 42 41 38 34 32 34 35 33 26 19 12 6 360 356 357 2 4 4 2 359 357 354 351 349 350 352 355 352 348 341 333 326 320 313 308 302 300 298 297 297 298
67 72 74 72 66 61 57 54 54 56 59 63 64 64 62 57 51 46 42 43 38 30 26 41 52 52 49 41 42 40 37 31 31 33 34 32 25 17 10 6 1 359 0 5 7 6 4 2 359 356 353 352 356 1 4 359 353 345 337 329 323 318 313 310 307 304 301 299 300
69 74 75 74 69 63 57 52 53 56 59 61 61 60 59 54 48 39 31 32 30 27 30 39 44 42 36 31 35 36 35 32 31 31 32 32 26 19 14 11 5 2 3 8 9 8 6 4 1 358 357 357 2 7 7 0 353 345 337 330 323 319 315 313 309 306 303 301 301
71 74 75 74 70 64 57 52 55 58 60 60 58 56 54 49 41 32 26 26 32 36 40 44 44 40 35 31 32 33 33 33 32 31 30 30 28 24 20 16 8 5 7 10 10 9 8 6 3 1 1 4 8 10 7 0 353 347 340 333 325 319 314 309 306 303 302 300 299
73 74 74 72 68 63 58 54 56 60 61 58 53 49 47 46 39 33 27 24 32 42 47 51 52 50 47 44 43 38 33 30 29 27 26 25 28 27 24 18 8 5 8 11 11 10 8 6 4 4 6 11 13 13 8 2 356 349 341 332 324 318 313 308 303 300 298 297 297
76 79 76 70 66 63 60 58 59 60 60 56 50 46 43 44 41 34 24 17 35 46 50 48 53 53 48 45 45 39 33 28 26 24 24 25 29 29 24 16 4 3 6 11 11 10 8 7 4 6 9 15 17 16 11 6 356 347 337 329 322 316 312 308 305 301 298 296 296
77 83 82 74 66 62 60 59 60 59 57 54 49 45 41 38 33 23 13 17 42 49 48 42 42 40 38 35 34 33 31 29 25 23 23 26 31 29 23 11 0 359 2 8 10 10 8 6 4 5 9 16 18 17 13 8 356 344 335 328 320 314 311 308 305 303 302 300 296
73 84 86 78 68 62 59 61 61 60 57 53 50 47 44 40 27 12 8 26 49 53 50 43 41 39 37 37 35 31 28 29 29 27 25 25 29 30 23 10 358 354 357 4 9 9 7 5 2 3 7 15 15 13 9 3 354 343 335 327 317 311 307 305 304 304 304 302 301
63 78 83 81 73 67 64 63 64 64 62 58 55 51 47 42 28 15 14 30 53 57 54 48 44 39 36 37 39 36 31 30 33 31 27 21 21 26 26 14 358 348 351 1 7 8 6 4 1 1 3 9 10 8 4 359 350 341 332 325 317 312 308 305 304 303 303 302 309
65 75 82 83 80 75 70 68 68 68 67 65 60 53 46 43 32 21 18 30 53 62 62 57 49 38 32 39 44 41 35 30 31 31 28 17 11 21 29 23 358 347 350 360 5 6 4 2 359 358 359 4 7 7 3 358 347 338 331 325 321 317 313 308 306 303 301 299 312
73 79 82 83 82 80 77 73 70 68 67 66 60 54 50 48 41 32 30 37 51 61 67 66 55 43 37 43 48 44 37 28 25 25 23 13 11 20 26 24 359 347 349 356 2 3 2 359 357 356 355 358 6 9 4 357 346 337 330 325 322 319 315 310 306 303 301 299 307
74 77 78 79 79 79 79 77 71 66 61 61 59 56 54 55 46 44 45 51 54 59 65 67 59 48 43 44 48 45 38 28 20 15 13 10 13 18 20 16 358 347 346 351 357 359 358 356 354 353 352 353 0 9 7 358 346 335 326 320 317 316 314 312 309 305 300 298 297